Custer, SD

11:02 PM MDT on May 21, 2018 (GMT -0600)
Custer County

Weather History for KCUT - October, 2013

Change the Weather History Date:

Monday, October 28, 2013

  Actual Average Record
Temperature  
Mean Temperature 24 °F 39 °F  
Max Temperature 27 °F 50 °F 74 °F (1983)
Min Temperature 20 °F 28 °F 8 °F (1963)
Degree Days  
Heating Degree Days 41 26  
Month to date heating degree days 708 614  
Since 1 July heating degree days 1027 1100  
Cooling Degree Days 0 0  
Month to date cooling degree days 0 0  
Year to date cooling degree days 187 177  
Moisture  
Dew Point 21 °F    
Average Humidity 94    
Maximum Humidity 100    
Minimum Humidity 88    
Precipitation  
Precipitation 0.04 in 0.02 in 0.74 in (1989)
Month to date precipitation 3.50 1.41  
Year to date precipitation 20.75 17.90  
Sea Level Pressure  
Sea Level Pressure 30.15 in    
Wind  
Wind Speed 13 mph (ENE)    
Max Wind Speed 22 mph    
Max Gust Speed 31 mph    
Visibility 2 miles    
Events Fog , Snow    
T = Trace of Precipitation, MM = Missing Value Source: NWS Daily Summary

Daily Weather History Graph

Daily Weather History Graph

Search for Another Location

Airport or City:

Astronomy

Oct. 28, 2013 Rise Set
Actual Time 7:25 AM MDT 5:50 PM MDT
Civil Twilight 6:55 AM MDT 6:19 PM MDT
Nautical Twilight 6:22 AM MDT 6:53 PM MDT
Astronomical Twilight 5:48 AM MDT 7:26 PM MDT
Moon 1:09 AM MDT (10/28) 2:43 PM MDT (10/28)
Length of Visible Light 11h 23m
Length of Day
10h 24m
Waning Crescent, 33% of the Moon is Illuminated
Oct 28
Waning Crescent
Nov 3
New
Nov 9
First Quarter
Nov 17
Full
Nov 25
Last Quarter

Hourly Weather History & Observations

Time (MDT) Temp. Windchill Dew Point Humidity Pressure Visibility Wind Dir Wind Speed Gust Speed Precip Events Conditions
12:15 AM 28.4 °F 16.2 °F 28.4 °F 100% 30.06 in 0.2 mi NE 17.3 mph 27.6 mph N/A Fog Light Freezing Fog
12:53 AM 27.0 °F 13.9 °F 26.1 °F 96% 30.02 in 0.2 mi NE 18.4 mph 26.5 mph N/A Fog Light Freezing Fog
1:53 AM 25.0 °F 11.3 °F 24.1 °F 96% 30.05 in 0.2 mi NE 18.4 mph 25.3 mph N/A Fog Light Freezing Fog
2:03 AM 24.8 °F 11.1 °F 24.8 °F 100% 30.07 in 0.5 mi NE 18.4 mph 31.1 mph N/A Fog Light Freezing Fog
2:16 AM 24.8 °F 12.4 °F 24.8 °F 100% 30.08 in 2.0 mi NE 15.0 mph 25.3 mph N/A   Overcast
2:25 AM 24.8 °F 11.5 °F 24.8 °F 100% 30.08 in 5.0 mi NE 17.3 mph - N/A   Overcast
2:32 AM 24.8 °F 10.7 °F 23.0 °F 93% 30.09 in 1.5 mi NE 19.6 mph - N/A   Overcast
2:44 AM 24.8 °F 11.1 °F 23.0 °F 93% 30.09 in 0.5 mi NE 18.4 mph - N/A Fog Light Freezing Fog
2:53 AM 24.1 °F 11.0 °F 23.0 °F 96% 30.09 in 0.2 mi NE 16.1 mph 23.0 mph N/A Fog Light Freezing Fog
2:56 AM 24.8 °F 12.4 °F 23.0 °F 93% 30.09 in 0.5 mi NE 15.0 mph 23.0 mph N/A Fog Light Freezing Fog
3:18 AM 24.8 °F 11.9 °F 23.0 °F 93% 30.09 in 0.2 mi NE 16.1 mph 26.5 mph N/A Fog Light Freezing Fog
3:53 AM 23.0 °F 10.6 °F 21.9 °F 96% 30.08 in 0.2 mi ENE 13.8 mph 24.2 mph N/A Fog Light Freezing Fog
4:53 AM 23.0 °F 10.1 °F 21.9 °F 96% 30.13 in 0.2 mi NE 15.0 mph 21.9 mph N/A Fog Light Freezing Fog
5:53 AM 21.9 °F 8.2 °F 21.0 °F 96% 30.15 in 0.2 mi NE 16.1 mph 25.3 mph N/A Fog Light Freezing Fog
6:50 AM 21.2 °F 8.3 °F 19.4 °F 93% 30.12 in 0.5 mi NE 13.8 mph 23.0 mph N/A Fog Light Freezing Fog
6:53 AM 21.0 °F 8.1 °F 19.9 °F 96% 30.19 in 0.5 mi NE 13.8 mph 23.0 mph N/A Fog Light Freezing Fog
7:05 AM 21.2 °F 7.8 °F 19.4 °F 93% 30.12 in 0.2 mi NE 15.0 mph - N/A Fog Light Freezing Fog
7:21 AM 21.2 °F 8.3 °F 19.4 °F 93% 30.13 in 0.5 mi NE 13.8 mph 19.6 mph N/A Fog Light Freezing Fog
7:31 AM 21.2 °F 7.3 °F 19.4 °F 93% 30.13 in 0.2 mi NE 16.1 mph 21.9 mph N/A Fog Light Freezing Fog
7:53 AM 21.0 °F 8.1 °F 19.9 °F 96% 30.22 in 0.2 mi NE 13.8 mph 23.0 mph N/A Fog Light Freezing Fog
8:45 AM 21.2 °F 8.9 °F 19.4 °F 93% 30.16 in 0.2 mi NE 12.7 mph 20.7 mph N/A Fog Light Freezing Fog
8:53 AM 21.9 °F 10.4 °F 21.0 °F 96% 30.25 in 0.2 mi NE 11.5 mph 19.6 mph N/A Fog Light Freezing Fog
9:53 AM 21.9 °F 9.2 °F 21.0 °F 96% 30.27 in 0.2 mi NE 13.8 mph 21.9 mph N/A Fog Light Freezing Fog
10:35 AM 21.2 °F 8.3 °F 21.2 °F 100% 30.15 in 0.5 mi NE 13.8 mph 21.9 mph 0.01 in Fog , Snow Light Snow
10:53 AM 21.9 °F 9.8 °F 21.0 °F 96% 30.26 in 1.0 mi NE 12.7 mph 20.7 mph 0.01 in   Overcast
11:03 AM 21.2 °F 8.9 °F 21.2 °F 100% 30.16 in 3.0 mi NE 12.7 mph 19.6 mph N/A   Overcast
11:29 AM 23.0 °F 11.7 °F 21.2 °F 93% 30.16 in 1.8 mi ENE 11.5 mph 19.6 mph N/A   Overcast
11:40 AM 23.0 °F 11.7 °F 21.2 °F 93% 30.16 in 0.5 mi ENE 11.5 mph 20.7 mph N/A Fog Light Freezing Fog
11:53 AM 24.1 °F 12.0 °F 21.9 °F 91% 30.27 in 0.2 mi ENE 13.8 mph 19.6 mph N/A Fog Light Freezing Fog
12:19 PM 24.8 °F 14.0 °F 23.0 °F 93% 30.14 in 0.5 mi ENE 11.5 mph - N/A Fog Light Freezing Fog
12:41 PM 24.8 °F 11.9 °F 23.0 °F 93% 30.14 in 0.2 mi ENE 16.1 mph - N/A Fog Light Freezing Fog
12:51 PM 24.8 °F 12.4 °F 23.0 °F 93% 30.14 in 0.5 mi ENE 15.0 mph 21.9 mph N/A Fog Light Freezing Fog
12:53 PM 24.1 °F 11.0 °F 21.9 °F 91% 30.26 in 0.5 mi East 16.1 mph 21.9 mph N/A Fog Light Freezing Fog
1:37 PM 24.8 °F 12.4 °F 23.0 °F 93% 30.11 in 1.0 mi ENE 15.0 mph - N/A   Overcast
1:53 PM 24.1 °F 12.5 °F 23.0 °F 96% 30.24 in 1.0 mi ENE 12.7 mph - N/A   Overcast
2:16 PM 24.8 °F 14.0 °F 23.0 °F 93% 30.11 in 0.8 mi ENE 11.5 mph 20.7 mph N/A   Overcast
2:24 PM 24.8 °F 13.4 °F 23.0 °F 93% 30.10 in 1.2 mi ENE 12.7 mph 18.4 mph N/A   Overcast
2:53 PM 24.1 °F 10.6 °F 23.0 °F 96% 30.23 in 1.0 mi ENE 17.3 mph 24.2 mph N/A   Overcast
3:09 PM 23.0 °F 9.2 °F 21.2 °F 93% 30.09 in 0.5 mi ENE 17.3 mph 24.2 mph 0.00 in Fog , Snow Light Snow
3:53 PM 23.0 °F 12.4 °F 21.9 °F 96% 30.24 in 0.8 mi NE 10.4 mph - 0.01 in Snow Light Snow
4:02 PM 23.0 °F 10.6 °F 21.2 °F 93% 30.08 in 1.8 mi NE 13.8 mph 20.7 mph 0.00 in Snow Light Snow
4:07 PM 23.0 °F 10.6 °F 21.2 °F 93% 30.09 in 3.0 mi NE 13.8 mph 20.7 mph 0.00 in Snow Light Snow
4:27 PM 23.0 °F 12.4 °F 21.2 °F 93% 30.10 in 1.8 mi ENE 10.4 mph - 0.00 in Snow Light Snow
4:39 PM 23.0 °F 11.1 °F 21.2 °F 93% 30.10 in 0.5 mi ENE 12.7 mph - 0.01 in Fog , Snow Snow
4:51 PM 21.2 °F 10.9 °F 19.4 °F 93% 30.10 in 2.0 mi ENE 9.2 mph 19.6 mph 0.01 in Snow Light Snow
4:53 PM 21.9 °F 13.4 °F 19.9 °F 92% 30.25 in 2.5 mi ENE 6.9 mph - 0.01 in Snow Light Snow
5:00 PM 21.2 °F 8.3 °F 19.4 °F 93% 30.10 in 4.0 mi ENE 13.8 mph 18.4 mph 0.00 in Snow Light Snow
5:23 PM 21.2 °F 10.9 °F 19.4 °F 93% 30.10 in 1.5 mi NE 9.2 mph - 0.01 in Snow Light Snow
5:44 PM 19.4 °F 6.0 °F 17.6 °F 93% 30.09 in 3.0 mi NE 13.8 mph 19.6 mph 0.01 in Snow Light Snow
5:53 PM 19.9 °F 7.9 °F 18.0 °F 92% 30.26 in 8.0 mi NE 11.5 mph - 0.01 in Snow Light Snow
6:53 PM 19.9 °F 7.3 °F 18.0 °F 92% 30.27 in 10.0 mi ENE 12.7 mph - N/A   Overcast
7:53 PM 19.9 °F 9.3 °F 18.0 °F 92% 30.27 in 10.0 mi ENE 9.2 mph - N/A   Overcast
8:10 PM 19.4 °F 6.6 °F 19.4 °F 100% 30.10 in 4.0 mi East 12.7 mph 18.4 mph N/A   Overcast
8:22 PM 19.4 °F 5.0 °F 17.6 °F 93% 30.10 in 2.0 mi East 16.1 mph 21.9 mph 0.00 in   Overcast
8:30 PM 19.4 °F 4.5 °F 19.4 °F 100% 30.10 in 1.5 mi ENE 17.3 mph 21.9 mph 0.00 in   Overcast
8:53 PM 19.9 °F 6.2 °F 18.0 °F 92% 30.27 in 1.8 mi ENE 15.0 mph - 0.00 in   Overcast
9:11 PM 19.4 °F 7.9 °F 17.6 °F 93% 30.11 in 2.0 mi East 10.4 mph 17.3 mph 0.00 in   Overcast
9:53 PM 19.9 °F 6.7 °F 18.0 °F 92% 30.27 in 2.0 mi ENE 13.8 mph - 0.00 in   Overcast
10:53 PM 19.9 °F 7.9 °F 18.0 °F 92% 30.27 in 2.5 mi ENE 11.5 mph - 0.00 in   Overcast
11:00 PM 19.4 °F 11.5 °F 17.6 °F 93% 30.11 in 3.0 mi East 5.8 mph - N/A   Overcast
11:53 PM 19.9 °F 11.1 °F 18.0 °F 92% 30.26 in 4.0 mi ENE 6.9 mph - N/A   Overcast